Flag for U.S.A. Weather past 2 weeks in Duluth, Minnesota, U.S.A.

Now
57 °F

Sunny.


Feels Like: 57 °F
Forecast: 54 / 70 °F
Wind: No wind

Location: Sky Harbor Airport

Current Time: Aug 28, 2014 at 8:38:22 AM

Latest Report: Aug 28, 2014 at 8:13 AM


Visibility: 10 mi

Pressure: 30.13 "Hg

Humidity: 94%

Dew point: 55 °F

Location of DuluthLocation

Historic Weather in Duluth — Graph

°F

Duluth temperature yesterday

Maximum temperature yesterday: 72 °F (at 4:53 PM)
Minimum temperature yesterday: 55 °F (at 3:53 AM)
Average temperature yesterday: 63 °F

Past Weeks' High & Low Weather Summary

 TemperatureHumidityPressure
High84 °F (Aug 15, 4:13 PM)100% (Aug 17, 5:54 PM)30.24 "Hg (Aug 17, 5:54 PM)
Low55 °F (Aug 14, 5:33 AM)47% (Aug 25, 2:33 PM)29.65 "Hg (Aug 19, 1:53 AM)
Average64 °F85%29.96 "Hg
* Reported Aug 13 7:33 AM — Aug 28 7:33 AM, Duluth, Weather by CustomWeather, © 2014

Note: Actual official high and low records may vary slightly from our data, if they occured in-between our weather recording intervals... More about our weather records

Advertising

Duluth weather history for previous 24 hours

 ConditionsComfort  
Time TempWeatherWind HumidityBarometerVisibility
7:33 AM
Aug 28
57 °FSunny.No wind94%30.12 "Hg10 mi
6:54 AM57 °FClear.No wind94%30.12 "Hg10 mi
6:33 AM57 °FClear.No wind94%30.12 "Hg10 mi
6:13 AM57 °FClear.No wind94%30.12 "Hg7 mi
5:54 AM57 °FClear.No wind94%30.13 "Hg10 mi
5:33 AM57 °FClear.No wind94%30.12 "Hg10 mi
5:13 AM55 °FClear.No wind94%30.12 "Hg10 mi
4:54 AM55 °FClear.No wind94%30.12 "Hg10 mi
4:33 AM57 °FClear.No wind88%30.13 "Hg10 mi
4:13 AM57 °FClear.3 mph88%30.13 "Hg10 mi
3:53 AM57 °FClear.No wind88%30.13 "Hg10 mi
3:33 AM57 °FClear.No wind94%30.13 "Hg10 mi
3:13 AM59 °FClear.No wind88%30.13 "Hg10 mi
2:53 AM61 °FPassing clouds.No wind83%30.14 "Hg10 mi
2:34 AM61 °FPassing clouds.No wind83%30.14 "Hg10 mi
2:13 AM61 °FOvercast.No wind83%30.14 "Hg10 mi
1:53 AM61 °FOvercast.No wind83%30.14 "Hg10 mi
1:34 AM61 °FPassing clouds.No wind83%30.15 "Hg10 mi
1:13 AM61 °FPassing clouds.5 mph88%30.15 "Hg10 mi
12:53 AM61 °FClear.7 mph83%30.15 "Hg10 mi
12:34 AM61 °FClear.7 mph83%30.15 "Hg10 mi
12:13 AM61 °FClear.8 mph88%30.15 "Hg10 mi
11:54 PM
Aug 27
61 °FPassing clouds.6 mph88%30.14 "Hg10 mi
11:33 PM61 °FPassing clouds.5 mph88%30.15 "Hg10 mi
11:13 PM63 °FPassing clouds.No wind83%30.14 "Hg10 mi
10:54 PM63 °FPassing clouds.3 mph83%30.14 "Hg10 mi
10:33 PM63 °FPassing clouds.No wind83%30.14 "Hg10 mi
10:13 PM63 °FPassing clouds.3 mph83%30.14 "Hg10 mi
9:54 PM64 °FClear.3 mph78%30.14 "Hg10 mi
9:33 PM64 °FClear.No wind88%30.14 "Hg10 mi
9:13 PM64 °FClear.No wind83%30.13 "Hg10 mi
8:54 PM64 °FSunny.No wind83%30.13 "Hg10 mi
8:33 PM64 °FSunny.No wind88%30.13 "Hg10 mi
8:13 PM64 °FSunny.No wind88%30.13 "Hg10 mi
7:54 PM66 °FSunny.No wind83%30.13 "Hg10 mi
7:33 PM68 °FSunny.No wind73%30.12 "Hg10 mi
7:13 PM70 °FSunny.No wind60%30.13 "Hg10 mi
6:54 PM70 °FSunny.No wind64%30.13 "Hg10 mi
6:33 PM70 °FScattered clouds.No wind73%30.13 "Hg10 mi
6:13 PM70 °FScattered clouds.No wind69%30.13 "Hg10 mi
5:54 PM70 °FSunny.3 mph73%30.14 "Hg10 mi
5:33 PM70 °FSunny.7 mph73%30.14 "Hg10 mi
5:13 PM72 °FSunny.6 mph65%30.15 "Hg10 mi
4:53 PM72 °FScattered clouds.5 mph61%30.15 "Hg10 mi
4:33 PM70 °FScattered clouds.5 mph69%30.16 "Hg10 mi
4:13 PM70 °FSunny.5 mph69%30.16 "Hg10 mi
3:53 PM70 °FScattered clouds.7 mph64%30.17 "Hg10 mi
3:34 PM68 °FScattered clouds.7 mph69%30.18 "Hg10 mi
3:13 PM70 °FSunny.5 mph64%30.18 "Hg10 mi
2:53 PM70 °FScattered clouds.7 mph60%30.19 "Hg10 mi
2:34 PM70 °FSunny.5 mph64%30.19 "Hg10 mi
2:13 PM70 °FScattered clouds.5 mph60%30.20 "Hg10 mi
1:53 PM66 °FScattered clouds.8 mph68%30.20 "Hg10 mi
1:33 PM70 °FSunny.5 mph60%30.21 "Hg10 mi
12:54 PM66 °FSunny.5 mph64%30.22 "Hg10 mi
12:33 PM66 °FSunny.6 mph68%30.23 "Hg10 mi
12:14 PM64 °FSunny.5 mph73%30.23 "Hg10 mi
11:33 AM64 °FSunny.6 mph73%30.22 "Hg10 mi
10:53 AM63 °FSunny.5 mph73%30.24 "Hg10 mi
9:33 AM61 °FSunny.3 mph77%30.23 "Hg10 mi
9:13 AM61 °FSunny.No wind77%30.22 "Hg10 mi
8:54 AM61 °FSunny.No wind77%30.22 "Hg10 mi
8:33 AM57 °FSunny.No wind88%30.22 "Hg10 mi
8:13 AM57 °FSunny.No wind88%30.22 "Hg10 mi
Weather by CustomWeather, © 2014

See weather overviewHow to use our weather pages